Flag for U.S.A. Weather past 2 weeks in Aurora, Colorado, U.S.A.

22 °F

Light freezing rain. Ice fog.

Feels Like: 14 °F
Forecast: 15 / 23 °F
Wind: 7 mph from East

Location: Buckley Air Force Base

Current Time: Nov 26, 2015 at 7:46:26 AM

Latest Report: Nov 26, 2015 at 6:58 AM

Visibility: 5 mi

Pressure: 30.21 "Hg (24.48 "Hg at 1647m altitude)

Humidity: 99%

Dew point: 22 °F

Location of AuroraLocation

Historic Weather in Aurora — Graph


Aurora temperature yesterday

Maximum temperature yesterday: 46 °F (at 9:58 AM)
Minimum temperature yesterday: 24 °F (at 11:58 PM)
Average temperature yesterday: 33 °F

Past Weeks' High & Low Weather Summary

High64 °F (Nov 14, 1:58 PM)100% (Nov 16, 4:58 PM)30.51 "Hg (Nov 16, 4:58 PM)
Low8 °F (Nov 21, 5:58 AM)9% (Nov 15, 1:58 PM)29.36 "Hg (Nov 16, 10:58 AM)
Average38 °F53%29.93 "Hg
* Reported Nov 11 6:58 AM — Nov 26 6:58 AM, Aurora, Weather by CustomWeather, © 2015

Note: Actual official high and low records may vary slightly from our data, if they occured in-between our weather recording intervals... More about our weather records


Aurora weather history for previous 24 hours

Time TempWeatherWind HumidityBarometerVisibility
6:58 AM
Thu, Nov 26
22 °FLight freezing rain. Ice fog.7 mph99%30.21 "Hg5 mi
5:58 AM23 °FLight freezing rain. Ice fog.8 mph100%30.18 "Hg6 mi
4:58 AM23 °FLight freezing rain. Ice fog.7 mph99%30.16 "Hg5 mi
3:58 AM23 °FLight freezing rain. Ice fog.7 mph99%30.13 "Hg5 mi
2:58 AM24 °FLight freezing rain. Ice fog.8 mph100%30.12 "Hg6 mi
1:58 AM24 °FLight freezing rain. Overcast.7 mph100%30.10 "HgN/A
12:58 AM24 °FLight snow. Ice fog.8 mph99%30.09 "Hg6 mi
11:58 PM
Wed, Nov 25
24 °FLight snow. Ice fog.9 mph100%30.07 "Hg4 mi
10:58 PM25 °FLight snow. Ice fog.8 mph100%30.06 "Hg5 mi
9:58 PM25 °FLight freezing rain. Ice fog.8 mph98%30.02 "Hg4 mi
8:58 PM25 °FLight freezing rain. Ice fog.8 mph100%30.05 "Hg5 mi
7:58 PM26 °FLight snow. Low clouds.8 mph97%30.05 "Hg7 mi
6:58 PM28 °FMostly cloudy.9 mph91%30.03 "Hg10 mi
5:58 PM28 °FMostly cloudy.14 mph89%29.99 "Hg10 mi
4:58 PM29 °FOvercast.12 mph84%29.98 "Hg10 mi
4:03 PM32 °FOvercast.15 mph80%29.93 "Hg10 mi
2:58 PM35 °FOvercast.6 mph72%29.91 "Hg10 mi
1:58 PM36 °FOvercast.9 mph68%29.88 "Hg10 mi
12:58 PM37 °FPartly sunny.9 mph67%29.88 "Hg10 mi
11:58 AM37 °FBroken clouds.10 mph70%29.88 "Hg10 mi
10:58 AM39 °FBroken clouds.16 mph61%29.86 "Hg10 mi
9:58 AM46 °FBroken clouds.16 mph40%29.82 "Hg10 mi
8:58 AM41 °FBroken clouds.6 mph40%29.78 "Hg10 mi
7:58 AM36 °FBroken clouds.8 mph47%29.78 "Hg10 mi
Weather by CustomWeather, © 2015

See weather overviewHow to use our weather pages